Location: Tucson
(32.2217°N, 110.9265°W)
Time: 04:36:19
(UTC-07:00)

Oscar 11 - Pass Details

Date: 04 December 2021
Orbit: 611 x 625 km, 97.6° (Epoch: 19 January)

Event Time Altitude Azimuth Distance (km) Brightness Sun altitude
Rises 04:29:36 0° 40° (NE) 2,899 10.9 -33.1°
Reaches altitude 10° 04:33:39 10° 78° (ENE) 1,983 10.4 -32.3°
Maximum altitude 04:34:42 11° 92° (E) 1,928 10.4 -32.1°
Drops below altitude 10° 04:35:46 10° 107° (ESE) 1,977 10.5 -31.8°
Sets 04:39:45 0° 144° (SE) 2,871 11.1 -31.0°
